Reflectivity
-20 -20 -20 -20 -20 -20 -20 -20 -20 -20 -20 -20 -20 -20 9 1 -15 21 -20 -20 -20 -20 -20 -20 -18 -2 10 10 15 15 -6 -8 1 7 13 -9 -11 -3 -19 -20 -20 -20 -20
-20 -20 -20 -20 -0 -20 -20 -20 -20 -20 14 -20 -20 -20 22 16 21 6 -20 -20 -20 -20 -20 -3 -17 12 12 13 17 12 -20 -17 6 7 6 -20 -1 -14 -20 -20 -20 -20 -20
-20 -20 -20 -20 -20 -20 -20 -20 -20 -20 5 -20 -20 -19 12 15 18 17 -20 -20 -20 -20 -20 -2 9 -4 -9 18 7 -19 -12 13 9 -7 4 -2 -20 -20 -20 -20 -20 -20 -20
-20 -20 -20 -20 -20 -9 -16 -20 -20 -14 -20 -20 -20 -20 24 27 10 15 -20 -20 -20 -20 -20 -20 5 3 -8 -16 -20 -20 -5 -9 -20 -20 -20 1 -20 -20 -20 -20 -20 -20 -20
-20 -20 -20 -20 -18 -7 8 -8 -20 -16 -2 -20 -20 -13 28 21 14 16 -20 -20 -20 -20 -20 8 8 8 1 -19 -20 -2 0 -0 -20 -20 11 -0 -4 -16 -20 -20 -20 -20 -20
-20 -20 -20 -18 8 -2 7 -11 -7 4 3 -19 -20 -18 25 29 13 17 -20 -20 -20 -20 -20 -12 6 4 4 -14 11 4 -20 -5 13 11 -18 -20 -1 -20 -20 -20 -20 -20 -20
-20 -20 -20 -20 -20 -2 -20 -12 -15 7 11 -20 10 20 28 28 22 17 -20 -20 -20 -20 -20 -20 -17 -20 4 -20 3 -20 11 -20 -20 -20 -9 -20 -4 -4 -18 -20 -20 -20 -20
-20 -20 -20 -20 -20 -20 -20 -6 -19 3 -4 -20 5 30 25 20 24 6 -20 -20 -20 -20 -20 -20 -20 -20 -20 -20 -20 -20 -20 -9 -5 -9 -20 -20 -20 -10 -20 -20 -20 -20 -20
-20 -20 -20 -20 -20 -20 -10 -20 8 7 1 -12 -2 7 15 -2 15 -18 -20 -20 -6 -20 -20 -20 -20 -20 -20 -20 -20 -20 -20 -20 -20 -8 -4 -20 -20 -20 -20 -20 -20 -17 -17
-20 -20 -20 -20 -20 -5 -9 2 14 20 32 33 -14 -1 3 -1 30 12 -20 -1 -14 -8 -20 -20 -20 -20 -20 -20 -20 -20 -20 -20 -20 -20 -20 -6 -20 -20 -20 -20 -20 -3 -17
-20 -1 -20 -20 -20 3 -20 -19 11 24 36 20 11 27 8 18 28 16 -20 -18 -16 -20 -20 -20 -20 -20 -20 -20 -20 -20 -20 -20 -20 -20 -20 -20 3 -20 -20 -20 -20 -14 -11
-20 -20 -20 -5 6 -12 -18 9 13 35 29 28 16 19 10 24 17 17 14 2 1 -20 -20 -20 -12 -12 -20 -20 -16 -20 -20 -20 -20 -20 -20 -20 -20 -20 5 -20 -20 -20 -19
-20 -19 -8 14 -16 -0 -11 -2 32 25 35 30 24 14 16 32 29 20 7 20 -14 -20 -20 -20 -19 -20 -20 -20 -20 -9 -12 -20 -20 -20 -20 -20 -20 -20 -20 -20 -5 5 -8
-20 -20 -17 -16 -8 2 -17 12 27 30 17 25 19 28 28 30 26 21 12 0 -18 -20 -20 -20 -20 -20 -20 -19 -20 -20 -20 -20 -20 -20 -20 -20 -20 -20 -20 -20 -20 -20 -20
-20 -20 -8 -20 -1 -20 -20 -14 16 31 31 21 24 24 32 31 25 28 5 5 -20 -20 -20 -1 -15 13 2 -20 -20 -20 -20 -20 -20 -20 -20 -20 -20 -14 -14 -20 -20 -4 -4
-20 -15 -12 -20 -20 -20 -20 -19 4 18 33 28 30 31 29 27 29 21 13 -20 -20 -5 -20 -15 -15 -20 -20 -20 -20 -20 -19 -2 -11 -10 7 -20 -13 11 -9 19 11 6 2
-20 -16 -20 -20 -20 -20 -20 -17 13 16 29 32 27 27 29 31 30 26 8 1 2 16 -9 4 18 -12 -20 -20 -20 11 -20 -20 -14 -20 5 14 -20 -14 1 -8 -18 -7 -12
-20 -20 -20 -20 -20 -20 -20 -9 12 5 11 18 26 25 28 19 10 22 14 6 7 -5 4 -1 -19 3 -1 -19 -20 3 -20 -20 -20 -20 -20 -20 -20 -8 6 -7 -2 -20 -20
-20 -20 9 -14 -20 -20 -20 -20 -20 9 -19 -12 -1 13 10 14 10 -8 -13 -19 -20 -20 -9 12 -11 -8 -9 -20 -20 -20 -20 -20 -20 -20 -16 -15 -18 3 14 5 4 -20 -19
9 -0 -14 -9 -19 -20 -20 -1 5 6 8 3 21 14 20 18 25 26 18 25 -20 -7 -17 -20 -20 -20 -20 -20 -20 -20 -20 -20 -20 -20 -10 12 12 0 2 23 18 34 16
19 14 -8 -5 -20 -20 -20 -19 -20 18 0 9 10 15 16 24 23 17 11 17 -7 -15 -18 -20 -20 -20 -20 -20 -20 -20 -20 -11 21 19 33 30 27 30 19 22 -3 6 -20
19 19 5 -1 -20 -14 17 2 7 15 -4 29 33 16 24 23 17 -2 -10 3 -20 -20 -20 -20 -20 -20 -20 -20 -20 -4 -8 16 -20 -20 -19 -20 -20 -9 6 4 3 -20 -6
2 20 17 18 14 -12 12 10 17 -2 22 10 22 10 29 20 4 -20 -5 -11 -1 11 -10 -18 -19 -6 -12 -8 7 -12 -20 7 19 28 7 -4 -2 22 35 19 20 20 3
11 23 14 16 25 24 17 15 20 6 12 1 -6 21 3 16 19 15 13 13 25 10 8 10 -3 -17 6 -5 -7 3 22 11 20 15 29 3 22 24 -17 3 4 2 -4
33 23 22 24 18 17 23 19 17 7 8 8 18 23 29 25 22 14 3 5 10 12 22 15 17 29 33 26 22 28 35 7 13 5 -19 -20 -20 -20 -20 -20 -18 -19 -20
10 7 19 3 32 30 31 19 27 28 26 10 16 10 14 5 12 14 4 -9 -3 4 19 16 21 24 33 36 13 7 -18 -20 -20 -20 -20 -20 -20 -20 -20 -20 -20 -20 -20
Wind_Speed
8 7 6 6 6 7 7 6 6 6 5 5 4 3 2 8 9 6 6 14 15 18 19 19 18 18 17 15 15 15 15 14 14 14 14 12 12 12 13 12 12 11 10
7 8 7 7 7 8 6 7 8 6 4 4 4 5 2 6 9 9 7 8 14 14 18 17 19 18 18 16 16 16 15 15 14 13 14 12 11 13 12 12 11 10 10
9 9 8 7 7 6 7 6 6 6 4 4 6 5 4 4 9 11 8 7 8 11 12 16 16 18 17 17 16 15 15 14 14 14 12 12 12 11 11 11 10 10 9
8 8 7 8 8 6 8 7 8 8 7 6 4 4 3 3 11 12 9 7 6 6 10 13 15 16 18 17 17 16 15 14 14 14 13 12 12 12 12 11 10 10 10
7 7 7 6 7 7 7 7 6 8 7 7 6 5 4 2 10 11 12 10 9 6 4 10 13 13 16 17 17 17 16 15 15 14 14 13 12 12 12 12 11 11 11
10 8 5 6 6 7 6 7 10 6 7 8 8 7 5 4 9 10 12 9 9 9 7 6 6 8 13 17 17 16 16 16 16 16 15 14 14 13 13 13 13 12 12
11 10 7 7 6 8 9 11 7 10 6 6 6 4 1 3 7 10 8 8 9 9 10 9 6 5 6 14 15 16 17 17 17 17 17 16 15 13 13 14 14 14 14
11 10 9 9 9 8 10 11 12 7 4 8 6 4 5 2 2 6 7 8 9 8 8 10 11 9 7 6 7 16 19 17 18 17 16 15 15 15 15 15 16 16 16
10 9 10 9 9 9 10 12 13 15 10 9 9 5 5 6 4 1 3 6 10 7 8 10 11 12 11 9 10 13 15 14 16 18 17 17 17 16 17 18 18 18 18
8 11 10 10 10 8 10 10 10 11 9 12 6 3 1 6 8 2 1 4 5 7 9 9 9 10 11 9 12 13 15 15 15 14 16 18 20 20 21 21 20 20 20
9 10 11 10 10 9 9 12 13 12 11 12 11 5 2 4 3 4 3 3 1 4 5 8 9 8 9 10 9 10 16 17 16 17 18 17 18 19 20 20 20 20 21
5 7 6 7 8 10 10 10 11 15 12 11 9 7 5 7 6 4 3 3 7 3 4 5 7 9 6 7 11 15 18 17 18 18 16 16 17 17 18 21 22 22 23
4 8 8 8 8 8 9 9 12 10 12 12 12 6 4 3 2 4 4 4 4 3 3 4 6 6 6 5 7 14 17 19 18 19 20 20 20 20 21 21 21 22 23
7 9 8 9 9 10 10 9 9 9 12 12 14 8 5 4 3 4 4 5 3 4 3 5 4 5 6 7 9 14 8 17 18 17 18 19 19 20 19 21 22 23 23
8 10 9 9 8 8 9 9 7 12 9 10 11 10 6 4 3 3 3 3 5 4 7 4 4 7 8 6 8 7 8 11 15 15 17 17 17 18 19 20 21 22 24
10 10 9 9 8 7 8 8 5 10 14 11 8 10 9 4 4 3 4 4 3 3 3 4 5 4 7 6 7 7 9 11 15 16 17 18 19 21 21 23 24 25 26
11 11 10 9 9 9 7 8 7 8 12 11 10 11 10 7 4 4 4 4 4 4 4 1 4 4 5 6 5 6 8 8 9 16 18 19 20 21 23 23 23 23 23
10 10 10 10 10 8 9 7 8 6 9 11 11 10 9 6 6 5 4 6 5 5 5 8 4 3 5 6 6 6 6 6 7 11 18 20 20 19 20 20 15 15 15
12 10 9 9 9 9 10 9 9 9 8 9 10 11 9 9 7 4 6 7 5 4 4 4 6 4 4 3 5 4 5 7 7 12 15 17 13 5 12 11 9 7 8
11 9 10 9 10 10 10 10 9 9 9 8 7 9 9 10 10 9 8 7 4 4 5 4 5 4 4 4 3 5 8 5 8 6 5 15 16 20 17 15 15 15 13
9 10 10 7 5 4 1 9 10 9 9 8 8 8 8 10 12 11 7 10 8 8 4 3 3 3 3 3 6 5 6 2 3 3 1 6 6 7 9 14 13 16 15
11 13 11 9 9 6 8 5 3 8 9 9 9 11 9 3 5 11 5 11 7 8 8 6 6 6 8 1 3 1 0 1 2 6 4 4 5 7 6 7 14 15 16
13 13 13 11 10 6 7 3 3 6 8 8 7 5 7 6 6 7 15 16 17 16 9 3 3 2 2 3 3 2 1 1 2 5 2 3 4 6 5 6 13 14 15
13 13 13 12 10 10 16 16 17 12 12 12 10 9 8 6 6 3 11 12 12 12 9 8 10 7 4 2 2 2 2 1 5 4 5 3 2 3 2 4 13 13 14
13 14 12 14 12 12 15 14 14 12 13 13 12 12 9 7 11 4 11 13 12 10 15 20 18 17 17 18 13 2 2 2 3 2 6 2 2 2 1 2 2 9 9
14 12 14 15 17 13 19 15 11 8 12 10 9 12 19 13 18 16 8 10 12 7 6 8 7 11 12 11 18 9 3 3 2 2 3 2 1 2 2 1 0 2 1
Wind_Direction
152 150 151 157 164 165 170 172 175 177 173 180 174 179 199 158 146 161 159 154 156 158 160 162 165 164 163 161 146 150 150 153 157 153 148 148 150 145 141 140 140 139 138
152 161 159 170 170 173 174 176 177 174 182 173 190 196 169 168 156 151 155 159 154 165 158 168 167 165 162 149 148 155 156 162 163 159 156 162 156 149 148 150 152 154 156
159 160 169 170 175 175 177 172 167 158 173 180 189 199 158 185 153 151 151 157 161 162 157 169 172 167 164 163 155 163 170 174 173 168 170 172 161 158 158 161 166 169 173
157 159 168 174 178 173 180 176 178 172 172 174 183 188 134 201 161 152 157 160 158 164 169 174 173 170 163 163 171 180 178 179 180 179 179 184 180 179 177 179 183 186 189
162 160 167 179 167 162 164 167 178 179 170 173 177 164 159 215 163 158 163 170 162 155 156 178 167 170 165 170 182 187 185 185 192 189 195 194 197 193 194 195 198 201 204
176 171 172 173 162 159 166 174 170 173 174 180 173 174 173 185 175 164 167 170 164 164 161 162 171 179 175 179 184 195 194 195 196 198 200 205 209 210 209 208 211 213 217
176 181 182 176 177 179 183 176 164 167 162 168 147 139 42 238 168 162 164 168 170 172 171 169 169 171 187 191 188 198 208 204 205 204 207 206 212 215 218 221 222 221 219
177 182 176 183 182 177 176 177 171 168 163 173 165 145 141 165 31 143 155 167 173 174 174 179 176 179 185 192 197 196 208 214 218 214 216 208 209 214 219 225 232 232 230
180 176 169 174 178 184 187 184 179 179 174 180 166 159 142 179 124 78 166 163 175 178 180 182 190 186 188 193 198 206 203 210 223 215 217 214 211 215 217 220 225 233 235
178 173 166 176 184 188 190 188 185 182 175 178 169 229 199 139 158 164 247 186 165 172 182 193 193 193 192 195 197 198 204 208 217 224 223 222 213 214 219 222 225 228 229
158 159 166 178 185 194 196 192 186 182 175 180 179 184 155 149 130 151 166 232 175 193 178 194 198 200 196 197 195 201 203 209 214 221 225 231 232 226 228 230 232 234 238
154 151 162 181 193 195 200 201 190 181 174 174 178 176 166 159 177 140 126 185 210 229 186 178 193 207 196 184 195 193 202 207 212 217 226 231 241 244 240 235 234 234 237
167 176 174 196 209 197 195 194 181 176 170 172 175 170 165 128 164 146 127 171 180 225 195 219 200 191 192 193 196 191 201 206 210 216 221 225 228 233 236 243 246 243 242
169 169 178 199 200 198 190 189 188 179 172 172 170 168 149 174 173 162 153 146 141 180 191 204 204 201 198 200 209 203 200 202 209 213 220 225 227 231 235 238 243 246 248
162 166 179 181 183 172 173 175 191 182 172 163 165 167 167 173 166 175 128 135 145 160 213 227 184 207 208 206 213 195 206 200 206 215 223 225 228 230 233 237 239 242 244
153 169 178 170 172 154 165 152 161 173 182 178 166 160 179 159 182 184 165 151 127 136 203 196 236 201 200 206 217 197 212 213 218 221 224 224 226 230 232 234 235 236 239
161 176 177 172 180 165 142 163 150 155 153 154 157 167 176 168 181 210 191 183 168 137 194 233 243 197 186 201 217 217 222 222 236 227 231 230 232 232 234 236 237 238 239
164 178 172 172 182 170 152 162 156 170 163 163 168 173 181 172 194 193 194 205 199 187 188 239 218 204 197 206 201 195 221 219 223 226 228 232 235 237 237 243 259 267 271
168 171 169 177 179 182 163 173 179 169 179 184 181 188 186 185 197 191 201 205 189 193 191 191 237 224 211 187 223 249 232 246 247 243 239 239 249 30 76 46 33 3 321
157 166 169 177 184 187 178 174 179 178 182 190 186 196 186 188 205 211 205 224 208 192 187 195 212 220 203 225 205 246 263 239 257 260 45 83 83 76 71 61 47 39 45
160 169 167 180 175 145 90 184 176 181 182 189 193 194 194 200 207 217 210 232 224 217 193 186 191 218 209 212 231 229 237 262 96 17 29 57 57 56 47 45 51 56 56
61 66 65 76 72 66 1 353 188 180 184 190 201 208 207 106 91 66 88 68 46 221 216 208 218 227 242 150 46 56 143 153 230 39 360 85 61 58 58 62 54 59 61
56 63 59 55 41 18 3 26 69 72 77 61 48 63 94 67 59 100 80 77 63 52 39 337 241 33 58 20 327 292 163 54 46 10 332 93 36 76 80 45 65 65 60
56 54 51 41 32 35 49 73 83 81 75 63 56 51 58 42 34 89 99 82 69 58 50 58 66 65 58 8 230 334 342 104 87 63 349 119 86 64 41 64 57 59 58
64 58 50 43 33 28 44 68 85 85 80 72 59 55 54 38 17 109 114 105 89 76 71 80 80 70 50 39 34 130 21 198 110 59 10 39 64 113 24 55 25 56 53
74 71 63 52 37 38 35 53 77 93 92 82 67 58 53 63 56 59 92 115 112 113 103 82 65 59 56 39 43 45 344 87 85 99 359 68 69 142 109 66 52 88 16